Location: Frizzleburg
(41.0764°N, 80.4548°W)
Time: 12:45:40
(UTC+00:00)

Cosmos 1515 Rocket - Pass Details

Date: 17 November 2019
Orbit: 605 x 631 km, 82.5° (Epoch: 05 December)

Event Time Altitude Azimuth Distance (km) Brightness Sun altitude
Rises 10:55:23 0° 354° (N) 2,871 6.8 -14.4°
Reaches altitude 10° 10:57:37 10° 356° (N) 1,962 6.0 -14.0°
Maximum altitude 11:01:57 74° 82° (E) 633 3.7 -13.2°
Drops below altitude 10° 11:06:15 10° 167° (SSE) 1,949 6.5 -12.4°
Sets 11:08:28 0° 170° (S) 2,850 7.3 -12.0°
